******** Week 143 almanac for PRN-1 ******** ID: 1 Health: 0 Eccentricity: 0.01123476028 Time of Applicability(s): 503808 Orbital Inclination(rad): 0.9863999804 Rate of Right Ascen(r/s): -7.840326581e-09 SQRT(A) (m 1/2): 5153.626953 Right Ascen at Week(rad): -1.161853003 Argument of Perigee(rad): 0.8835478422 Mean Anom(rad): -2.501683731 Af0(s): 0.0003662857178 Af1(s/s): -1.091394e-11 week: 143 ******** Week 143 almanac for PRN-2 ******** ID: 2 Health: 0 Eccentricity: 0.02065658569 Time of Applicability(s): 503808 Orbital Inclination(rad): 0.964744486 Rate of Right Ascen(r/s): -7.988904198e-09 SQRT(A) (m 1/2): 5153.621582 Right Ascen at Week(rad): -1.250347891 Argument of Perigee(rad): -1.460678902 Mean Anom(rad): -2.334812761 Af0(s): -0.0005117448608 Af1(s/s): 0 week: 143 ******** Week 143 almanac for PRN-3 ******** ID: 3 Health: 0 Eccentricity: 0.003849983215 Time of Applicability(s): 503808 Orbital Inclination(rad): 0.9724143899 Rate of Right Ascen(r/s): -8.000333246e-09 SQRT(A) (m 1/2): 5153.65332 Right Ascen at Week(rad): -0.1263860104 Argument of Perigee(rad): 0.982536791 Mean Anom(rad): 2.61030912 Af0(s): -5.50182251e-05 Af1(s/s): -1.455192e-11 week: 143 ******** Week 143 almanac for PRN-4 ******** ID: 4 Health: 0 Eccentricity: 0.00164270401 Time of Applicability(s): 503808 Orbital Inclination(rad): 0.9609215182 Rate of Right Ascen(r/s): -7.771752296e-09 SQRT(A) (m 1/2): 5153.617188 Right Ascen at Week(rad): 0.9544408992 Argument of Perigee(rad): -3.113667913 Mean Anom(rad): -0.6709551824 Af0(s): -0.0001545032349 Af1(s/s): 0 week: 143 ******** Week 143 almanac for PRN-5 ******** ID: 5 Health: 0 Eccentricity: 0.005894184113 Time of Applicability(s): 503808 Orbital Inclination(rad): 0.9593995216 Rate of Right Ascen(r/s): -8.160339911e-09 SQRT(A) (m 1/2): 5153.59082 Right Ascen at Week(rad): -0.1662541561 Argument of Perigee(rad): 1.015264586 Mean Anom(rad): 0.1415685253 Af0(s): -5.275720215e-05 Af1(s/s): 0 week: 143 ******** Week 143 almanac for PRN-6 ******** ID: 6 Health: 0 Eccentricity: 0.002594947815 Time of Applicability(s): 503808 Orbital Inclination(rad): 0.9857827928 Rate of Right Ascen(r/s): -7.840326581e-09 SQRT(A) (m 1/2): 5153.602051 Right Ascen at Week(rad): -1.170122867 Argument of Perigee(rad): -1.007163624 Mean Anom(rad): -2.126349416 Af0(s): 0.0001296319824 Af1(s/s): 1.091394e-11 week: 143 ******** Week 143 almanac for PRN-7 ******** ID: 7 Health: 0 Eccentricity: 0.01541185379 Time of Applicability(s): 503808 Orbital Inclination(rad): 0.9506570296 Rate of Right Ascen(r/s): -7.977475151e-09 SQRT(A) (m 1/2): 5153.647949 Right Ascen at Week(rad): 1.974044149 Argument of Perigee(rad): -2.297136605 Mean Anom(rad): 3.123311094 Af0(s): 0.0002366537353 Af1(s/s): 3.637979e-12 week: 143 ******** Week 143 almanac for PRN-8 ******** ID: 8 Health: 0 Eccentricity: 0.007087707519 Time of Applicability(s): 503808 Orbital Inclination(rad): 0.9652418313 Rate of Right Ascen(r/s): -7.806039438e-09 SQRT(A) (m 1/2): 5153.657715 Right Ascen at Week(rad): -2.241256037 Argument of Perigee(rad): 0.07430593951 Mean Anom(rad): -0.1945743776 Af0(s): -4.069841309e-05 Af1(s/s): 0 week: 143 ******** Week 143 almanac for PRN-9 ******** ID: 9 Health: 0 Eccentricity: 0.002351760864 Time of Applicability(s): 503808 Orbital Inclination(rad): 0.9539407072 Rate of Right Ascen(r/s): -7.851755628e-09 SQRT(A) (m 1/2): 5153.595215 Right Ascen at Week(rad): 0.9017912031 Argument of Perigee(rad): 1.858333461 Mean Anom(rad): 0.1274016735 Af0(s): -0.000283381543 Af1(s/s): 0 week: 143 ******** Week 143 almanac for PRN-10 ******** ID: 10 Health: 0 Eccentricity: 0.007423400879 Time of Applicability(s): 503808 Orbital Inclination(rad): 0.972258595 Rate of Right Ascen(r/s): -7.988904198e-09 SQRT(A) (m 1/2): 5153.628906 Right Ascen at Week(rad): -0.129186574 Argument of Perigee(rad): -2.541881817 Mean Anom(rad): 1.780261854 Af0(s): -0.0002276096436 Af1(s/s): -1.091394e-11 week: 143 ******** Week 143 almanac for PRN-11 ******** ID: 11 Health: 255 Eccentricity: 0.000316619873 Time of Applicability(s): 503808 Orbital Inclination(rad): 0.9615147373 Rate of Right Ascen(r/s): -8.103194673e-09 SQRT(A) (m 1/2): 5153.705566 Right Ascen at Week(rad): -1.117162705 Argument of Perigee(rad): 2.792624759 Mean Anom(rad): -0.278701764 Af0(s): -1.733450928e-05 Af1(s/s): -3.637979e-11 week: 143 ******** Week 143 almanac for PRN-12 ******** ID: 12 Health: 0 Eccentricity: 0.008547782898 Time of Applicability(s): 503808 Orbital Inclination(rad): 0.9711021173 Rate of Right Ascen(r/s): -7.886042771e-09 SQRT(A) (m 1/2): 5153.570801 Right Ascen at Week(rad): 3.086315792 Argument of Perigee(rad): 1.234729824 Mean Anom(rad): 2.455896876 Af0(s): -0.0001205878906 Af1(s/s): -7.275958e-12 week: 143 ******** Week 143 almanac for PRN-13 ******** ID: 13 Health: 0 Eccentricity: 0.005784988403 Time of Applicability(s): 503808 Orbital Inclination(rad): 0.9683337613 Rate of Right Ascen(r/s): -7.680319916e-09 SQRT(A) (m 1/2): 5153.631348 Right Ascen at Week(rad): 1.054030557 Argument of Perigee(rad): 0.9744294628 Mean Anom(rad): -0.8215440841 Af0(s): 0.000190679602 Af1(s/s): 7.275958e-12 week: 143 ******** Week 143 almanac for PRN-14 ******** ID: 14 Health: 0 Eccentricity: 0.001297950745 Time of Applicability(s): 503808 Orbital Inclination(rad): 0.9545039658 Rate of Right Ascen(r/s): -8.068907531e-09 SQRT(A) (m 1/2): 5153.587402 Right Ascen at Week(rad): 3.055647411 Argument of Perigee(rad): 3.050886304 Mean Anom(rad): 2.484529062 Af0(s): -5.351087646e-05 Af1(s/s): -7.275958e-12 week: 143 ******** Week 143 almanac for PRN-15 ******** ID: 15 Health: 0 Eccentricity: 0.0139169693 Time of Applicability(s): 503808 Orbital Inclination(rad): 0.9298404309 Rate of Right Ascen(r/s): -8.091765626e-09 SQRT(A) (m 1/2): 5153.667969 Right Ascen at Week(rad): 0.7967595834 Argument of Perigee(rad): 1.069506686 Mean Anom(rad): -1.212866853 Af0(s): -7.386008301e-05 Af1(s/s): 3.637979e-12 week: 143 ******** Week 143 almanac for PRN-16 ******** ID: 16 Health: 0 Eccentricity: 0.01260995865 Time of Applicability(s): 503808 Orbital Inclination(rad): 0.9710781488 Rate of Right Ascen(r/s): -7.886042771e-09 SQRT(A) (m 1/2): 5153.53125 Right Ascen at Week(rad): 3.104947517 Argument of Perigee(rad): 0.6943064447 Mean Anom(rad): 0.5980708716 Af0(s): -0.000357241626 Af1(s/s): -7.275958e-12 week: 143 ******** Week 143 almanac for PRN-17 ******** ID: 17 Health: 0 Eccentricity: 0.01374101639 Time of Applicability(s): 503808 Orbital Inclination(rad): 0.9802580651 Rate of Right Ascen(r/s): -7.657461821e-09 SQRT(A) (m 1/2): 5153.693848 Right Ascen at Week(rad): -2.159934457 Argument of Perigee(rad): -1.511556806 Mean Anom(rad): -0.2916009095 Af0(s): 0.0004408994751 Af1(s/s): 3.637979e-12 week: 143 ******** Week 143 almanac for PRN-18 ******** ID: 18 Health: 0 Eccentricity: 0.002093315124 Time of Applicability(s): 503808 Orbital Inclination(rad): 0.9701913162 Rate of Right Ascen(r/s): -7.988904198e-09 SQRT(A) (m 1/2): 5153.581543 Right Ascen at Week(rad): -1.153458428 Argument of Perigee(rad): 3.101620771 Mean Anom(rad): -2.307675233 Af0(s): 0.00020952146 Af1(s/s): -7.275958e-12 week: 143 ******** Week 143 almanac for PRN-19 ******** ID: 19 Health: 0 Eccentricity: 0.008920669556 Time of Applicability(s): 503808 Orbital Inclination(rad): 0.9789637688 Rate of Right Ascen(r/s): -7.668890868e-09 SQRT(A) (m 1/2): 5153.635254 Right Ascen at Week(rad): -2.115007845 Argument of Perigee(rad): 1.993854073 Mean Anom(rad): 2.102461111 Af0(s): 8.139682617e-05 Af1(s/s): 3.637979e-12 week: 143 ******** Week 143 almanac for PRN-20 ******** ID: 20 Health: 0 Eccentricity: 0.005336761475 Time of Applicability(s): 503808 Orbital Inclination(rad): 0.9415490186 Rate of Right Ascen(r/s): -8.354633718e-09 SQRT(A) (m 1/2): 5153.662598 Right Ascen at Week(rad): -0.2795286755 Argument of Perigee(rad): 3.094175196 Mean Anom(rad): -1.430192907 Af0(s): 0.0004084914795 Af1(s/s): 0 week: 143 ******** Week 143 almanac for PRN-21 ******** ID: 21 Health: 0 Eccentricity: 0.02448034286 Time of Applicability(s): 503808 Orbital Inclination(rad): 0.9589800738 Rate of Right Ascen(r/s): -7.988904198e-09 SQRT(A) (m 1/2): 5153.548828 Right Ascen at Week(rad): -1.251731694 Argument of Perigee(rad): -1.0305808 Mean Anom(rad): -0.1391559511 Af0(s): 0.0001228489136 Af1(s/s): 0 week: 143 ******** Week 143 almanac for PRN-22 ******** ID: 22 Health: 255 Eccentricity: 0.006863594055 Time of Applicability(s): 503808 Orbital Inclination(rad): 0.9382833174 Rate of Right Ascen(r/s): -8.354633718e-09 SQRT(A) (m 1/2): 5153.580078 Right Ascen at Week(rad): -0.2337219718 Argument of Perigee(rad): -0.861583754 Mean Anom(rad): -1.40128059 Af0(s): -0.0003338777222 Af1(s/s): 7.275958e-12 week: 143 ******** Week 143 almanac for PRN-23 ******** ID: 23 Health: 0 Eccentricity: 0.001959323883 Time of Applicability(s): 503808 Orbital Inclination(rad): 0.9672851416 Rate of Right Ascen(r/s): -8.057478483e-09 SQRT(A) (m 1/2): 5153.645508 Right Ascen at Week(rad): -0.1538355031 Argument of Perigee(rad): 2.903356001 Mean Anom(rad): 3.135597546 Af0(s): 1.055144043e-05 Af1(s/s): -3.637979e-12 week: 143 ******** Week 143 almanac for PRN-24 ******** ID: 24 Health: 0 Eccentricity: 0.01225423813 Time of Applicability(s): 503808 Orbital Inclination(rad): 0.9341008229 Rate of Right Ascen(r/s): -8.148910863e-09 SQRT(A) (m 1/2): 5153.638672 Right Ascen at Week(rad): 1.89193161 Argument of Perigee(rad): 0.7990781565 Mean Anom(rad): -2.192928901 Af0(s): 0.0002185655518 Af1(s/s): 0 week: 143 ******** Week 143 almanac for PRN-25 ******** ID: 25 Health: 0 Eccentricity: 0.01032781601 Time of Applicability(s): 503808 Orbital Inclination(rad): 0.9584887206 Rate of Right Ascen(r/s): -8.023191341e-09 SQRT(A) (m 1/2): 5153.671387 Right Ascen at Week(rad): 3.010098743 Argument of Perigee(rad): 0.9694170607 Mean Anom(rad): 2.230073632 Af0(s): 0.0002117824829 Af1(s/s): 7.275958e-12 week: 143 ******** Week 143 almanac for PRN-26 ******** ID: 26 Health: 0 Eccentricity: 0.006746292114 Time of Applicability(s): 503808 Orbital Inclination(rad): 0.9393259449 Rate of Right Ascen(r/s): -8.251772291e-09 SQRT(A) (m 1/2): 5153.618164 Right Ascen at Week(rad): 2.963852368 Argument of Perigee(rad): 0.3434663879 Mean Anom(rad): 1.582151381 Af0(s): 0.0001364150513 Af1(s/s): 3.637979e-12 week: 143 ******** Week 143 almanac for PRN-27 ******** ID: 27 Health: 0 Eccentricity: 0.009972095489 Time of Applicability(s): 503808 Orbital Inclination(rad): 0.973912418 Rate of Right Ascen(r/s): -7.726036106e-09 SQRT(A) (m 1/2): 5153.605469 Right Ascen at Week(rad): -2.222146067 Argument of Perigee(rad): 0.6277805142 Mean Anom(rad): -0.2736597758 Af0(s): 4.295943603e-05 Af1(s/s): 2.182787e-11 week: 143 ******** Week 143 almanac for PRN-29 ******** ID: 29 Health: 0 Eccentricity: 0.001752853394 Time of Applicability(s): 503808 Orbital Inclination(rad): 0.9822414543 Rate of Right Ascen(r/s): -7.646032773e-09 SQRT(A) (m 1/2): 5153.727051 Right Ascen at Week(rad): -2.147004602 Argument of Perigee(rad): 2.302099198 Mean Anom(rad): -0.1730424705 Af0(s): -0.0003670393921 Af1(s/s): -3.637979e-12 week: 143 ******** Week 143 almanac for PRN-30 ******** ID: 30 Health: 0 Eccentricity: 0.005404949188 Time of Applicability(s): 503808 Orbital Inclination(rad): 0.9358325434 Rate of Right Ascen(r/s): -8.148910863e-09 SQRT(A) (m 1/2): 5153.53418 Right Ascen at Week(rad): 1.987781067 Argument of Perigee(rad): -2.753256205 Mean Anom(rad): 3.130440959 Af0(s): -0.0003994473877 Af1(s/s): -3.637979e-12 week: 143 ******** Week 143 almanac for PRN-31 ******** ID: 31 Health: 0 Eccentricity: 0.01045846939 Time of Applicability(s): 503808 Orbital Inclination(rad): 0.9549054373 Rate of Right Ascen(r/s): -7.966046103e-09 SQRT(A) (m 1/2): 5153.613281 Right Ascen at Week(rad): 1.991988279 Argument of Perigee(rad): 0.3631995377 Mean Anom(rad): 2.671849613 Af0(s): -0.0001258636108 Af1(s/s): 0 week: 143 ******** Week 143 almanac for PRN-32 ******** ID: 32 Health: 0 Eccentricity: 0.005390644073 Time of Applicability(s): 503808 Orbital Inclination(rad): 0.9577996276 Rate of Right Ascen(r/s): -7.794610391e-09 SQRT(A) (m 1/2): 5153.712891 Right Ascen at Week(rad): 0.9128223076 Argument of Perigee(rad): -2.379582455 Mean Anom(rad): 0.4174169202 Af0(s): -3.69300415e-05 Af1(s/s): -7.275958e-12 week: 143